Date String (YYYY-MM-DD hh:mm:ss) UTC,Instrument flags,Ambient pressure (hPa),Sample flow (lpm),Bypass flow (lpm),Sample temperature (°C),Ambient temperature (°C),ASC tube jacket temperature (°C),LED temperature (°C),Box temperature (°C),Sample RH (%),Span deviation,Mass concentration (μg/m³),Mass concentration (μg/m³),Mass concentration (μg/m³)
DateTimeUTC,F1_M11,P_M11,Q1_M11,Q2_M11,T1_M11,T2_M11,T3_M11,T4_M11,T5_M11,U1_M11,ZSPAN_M11,X0_M11,X2_M11,X1_M11
2022-04-10 18:00:00,,0816.0,5.01,0.00,21.9,20.8,00.0,30.9,23.5,09.3,0000.0,0011.73,0004.22,0002.46
2022-04-10 18:01:00,,0816.2,5.01,0.00,21.8,20.8,00.0,30.9,23.5,09.4,0000.0,0012.27,0004.23,0002.45
2022-04-10 18:02:00,,0815.8,5.00,0.00,21.8,20.8,00.0,30.9,23.5,09.9,0000.0,0012.29,0004.21,0002.43
2022-04-10 18:03:00,,0815.8,5.00,0.00,21.8,20.8,00.0,30.9,23.5,09.8,0000.0,0011.19,0004.17,0002.43
2022-04-10 18:04:00,,0816.0,5.00,0.00,21.8,20.8,00.0,30.9,23.4,09.0,0000.0,0011.16,0004.14,0002.44
2022-04-10 18:05:00,,0816.0,4.99,0.00,21.8,20.8,00.0,30.9,23.4,09.7,0000.0,0011.15,0004.11,0002.41
2022-04-10 18:06:00,,0816.0,5.00,0.00,21.8,20.8,00.0,30.9,23.4,09.4,0000.0,0011.11,0004.13,0002.41
2022-04-10 18:07:00,,0816.1,5.00,0.00,21.7,20.7,00.0,30.9,23.4,09.0,0000.0,0011.34,0004.19,0002.43
2022-04-10 18:08:00,,0815.9,4.99,0.00,21.7,20.7,00.0,30.9,23.3,09.4,0000.0,0011.24,0004.17,0002.43
2022-04-10 18:09:00,,0815.9,5.02,0.00,21.7,20.7,00.0,30.9,23.4,09.3,0000.0,0011.21,0004.18,0002.42
2022-04-10 18:10:00,,0816.0,4.99,0.00,21.7,20.7,00.0,30.8,23.5,09.0,0000.0,0011.38,0004.20,0002.42
2022-04-10 18:11:00,,0816.2,5.00,0.00,21.7,20.7,00.0,30.8,23.4,09.2,0000.0,0011.30,0004.15,0002.42
2022-04-10 18:12:00,,0816.0,5.00,0.00,21.7,20.7,00.0,30.8,23.4,09.5,0000.0,0011.18,0004.17,0002.42
2022-04-10 18:13:00,,0816.1,4.99,0.00,21.7,20.7,00.0,30.8,23.4,09.0,0000.0,0011.30,0004.17,0002.44
2022-04-10 18:14:00,,0816.2,5.00,0.00,21.7,20.7,00.0,30.8,23.4,09.6,0000.0,0011.39,0004.14,0002.43
2022-04-10 18:15:00,,0816.3,5.00,0.00,21.7,20.7,00.0,30.8,23.3,09.7,0000.0,0011.75,0004.15,0002.43
2022-04-10 18:16:00,,0816.2,5.00,0.00,21.7,20.7,00.0,30.8,23.3,09.6,0000.0,0012.11,0004.19,0002.45
2022-04-10 18:17:00,,0816.2,5.02,0.00,21.6,20.7,00.0,30.8,23.3,09.4,0000.0,0013.02,0004.14,0002.45
2022-04-10 18:18:00,,0816.2,5.00,0.00,21.6,20.7,00.0,30.8,23.3,09.2,0000.0,0013.26,0004.12,0002.47
2022-04-10 18:19:00,,0816.2,4.99,0.00,21.6,20.7,00.0,30.8,23.3,09.2,0000.0,0013.28,0004.16,0002.51
2022-04-10 18:20:00,,0816.3,5.00,0.00,21.6,20.7,00.0,30.7,23.3,09.0,0000.0,0013.19,0004.13,0002.51
2022-04-10 18:21:00,,0816.3,5.00,0.00,21.6,20.7,00.0,30.7,23.2,09.1,0000.0,0013.00,0004.10,0002.52
2022-04-10 18:22:00,,0816.1,5.00,0.00,21.6,20.6,00.0,30.7,23.2,09.4,0000.0,0012.95,0004.10,0002.53
2022-04-10 18:23:00,,0816.1,4.99,0.00,21.6,20.6,00.0,30.7,23.2,09.2,0000.0,0012.70,0004.10,0002.55
2022-04-10 18:24:00,,0816.1,5.00,0.00,21.5,20.6,00.0,30.7,23.2,09.1,0000.0,0012.27,0004.06,0002.55
2022-04-10 18:25:00,,0816.2,5.00,0.00,21.5,20.6,00.0,30.7,23.2,08.6,0000.0,0012.01,0004.07,0002.57
2022-04-10 18:26:00,,0816.2,5.00,0.00,21.5,20.6,00.0,30.7,23.2,09.1,0000.0,0011.37,0004.11,0002.58
2022-04-10 18:27:00,,0816.1,5.02,0.00,21.6,20.5,00.0,30.7,23.2,09.9,0000.0,0010.81,0004.16,0002.58
2022-04-10 18:28:00,,0816.1,5.00,0.00,21.6,20.5,00.0,30.7,23.2,09.2,0000.0,0009.88,0004.20,0002.62
2022-04-10 18:29:00,,0816.3,4.99,0.00,21.6,20.5,00.0,30.7,23.2,09.0,0000.0,0009.47,0004.16,0002.62
2022-04-10 18:30:00,,0816.1,5.00,0.00,21.6,20.6,00.0,30.7,23.2,09.0,0000.0,0009.24,0004.11,0002.59
2022-04-10 18:31:00,,0816.1,5.00,0.00,21.6,20.6,00.0,30.7,23.2,09.3,0000.0,0009.47,0004.15,0002.57
2022-04-10 18:32:00,,0816.0,4.99,0.00,21.6,20.6,00.0,30.7,23.2,09.6,0000.0,0009.46,0004.14,0002.57
2022-04-10 18:33:00,,0816.0,5.00,0.00,21.6,20.6,00.0,30.7,23.2,09.5,0000.0,0009.47,0004.13,0002.55
2022-04-10 18:34:00,,0815.9,5.00,0.00,21.6,20.6,00.0,30.7,23.3,09.8,0000.0,0009.47,0004.10,0002.52
2022-04-10 18:35:00,,0816.1,5.01,0.00,21.6,20.6,00.0,30.7,23.3,09.0,0000.0,0009.88,0004.16,0002.51
2022-04-10 18:36:00,,0816.0,5.01,0.00,21.6,20.6,00.0,30.7,23.3,09.2,0000.0,0010.04,0004.20,0002.50
2022-04-10 18:37:00,,0815.9,5.00,0.00,21.6,20.6,00.0,30.7,23.2,09.1,0000.0,0009.87,0004.15,0002.49
2022-04-10 18:38:00,,0816.0,5.00,0.00,21.6,20.6,00.0,30.7,23.2,09.1,0000.0,0009.99,0004.12,0002.47
2022-04-10 18:39:00,,0815.9,4.99,0.00,21.6,20.6,00.0,30.7,23.3,09.1,0000.0,0011.36,0004.12,0002.43
2022-04-10 18:40:00,,0815.9,5.00,0.00,21.6,20.6,00.0,30.7,23.3,09.2,0000.0,0011.93,0004.14,0002.41
2022-04-10 18:41:00,,0816.0,5.00,0.00,21.6,20.6,00.0,30.7,23.3,08.5,0000.0,0013.09,0004.14,0002.42
2022-04-10 18:42:00,,0815.9,5.01,0.00,21.6,20.6,00.0,30.6,23.3,08.6,0000.0,0013.39,0004.14,0002.42
2022-04-10 18:43:00,,0815.8,4.99,0.00,21.6,20.6,00.0,30.6,23.3,08.5,0000.0,0013.74,0004.14,0002.44
2022-04-10 18:44:00,,0815.9,4.99,0.00,21.6,20.6,00.0,30.6,23.2,08.2,0000.0,0013.76,0004.17,0002.47
2022-04-10 18:45:00,,0816.0,5.00,0.00,21.6,20.6,00.0,30.6,23.2,08.6,0000.0,0013.74,0004.21,0002.50
2022-04-10 18:46:00,,0816.0,5.00,0.00,21.6,20.6,00.0,30.6,23.3,08.9,0000.0,0013.51,0004.19,0002.51
2022-04-10 18:47:00,,0816.3,5.00,0.00,21.6,20.6,00.0,30.7,23.3,08.6,0000.0,0013.36,0004.11,0002.51
2022-04-10 18:48:00,,0816.1,5.00,0.00,21.6,20.5,00.0,30.7,23.3,09.2,0000.0,0013.57,0004.14,0002.51
2022-04-10 18:49:00,,0816.1,5.01,0.00,21.6,20.5,00.0,30.7,23.3,09.1,0000.0,0013.42,0004.11,0002.54
2022-04-10 18:50:00,,0816.2,5.01,0.00,21.6,20.5,00.0,30.6,23.3,08.9,0000.0,0011.79,0004.07,0002.56
2022-04-10 18:51:00,,0816.1,5.00,0.00,21.6,20.5,00.0,30.7,23.3,08.6,0000.0,0011.12,0004.02,0002.56
2022-04-10 18:52:00,,0816.0,5.00,0.00,21.6,20.5,00.0,30.7,23.4,08.7,0000.0,0009.97,0003.97,0002.56
2022-04-10 18:53:00,,0816.0,5.00,0.00,21.6,20.5,00.0,30.7,23.3,09.1,0000.0,0009.90,0003.97,0002.58
2022-04-10 18:54:00,,0815.9,5.00,0.00,21.6,20.5,00.0,30.7,23.3,08.4,0000.0,0009.68,0003.96,0002.58
2022-04-10 18:55:00,,0815.9,5.00,0.00,21.7,20.6,00.0,30.7,23.4,07.7,0000.0,0009.70,0003.96,0002.58
2022-04-10 18:56:00,,0816.0,5.00,0.00,21.7,20.6,00.0,30.7,23.4,07.9,0000.0,0009.81,0003.97,0002.57
2022-04-10 18:57:00,,0816.0,5.01,0.00,21.7,20.6,00.0,30.7,23.3,08.4,0000.0,0009.92,0003.96,0002.58
2022-04-10 18:58:00,,0816.0,4.99,0.00,21.7,20.6,00.0,30.7,23.4,08.5,0000.0,0009.82,0003.98,0002.57
2022-04-10 18:59:00,,0816.0,5.00,0.00,21.7,20.6,00.0,30.7,23.4,08.5,0000.0,0010.76,0003.94,0002.56
